Location: Byszew
(52.1813°N, 19.2693°E)
Time: 23:59:31
(UTC+00:00)

Cosmos 2333 Rocket - Pass Details

Date: 03 March 2021
Orbit: 837 x 864 km, 70.8° (Epoch: 11 April)

Event Time Altitude Azimuth Distance (km) Brightness Sun altitude
Rises 18:48:46 0° 200° (SSW) 3,392 5.4 -22.4°
Reaches altitude 10° 18:51:12 10° 198° (SSW) 2,464 4.6 -22.7°
Maximum altitude 18:56:49 69° 116° (ESE) 913 2.1 -23.5°
Drops below altitude 10° 19:02:31 10° 35° (NE) 2,499 4.5 -24.3°
Sets 19:05:00 0° 33° (NNE) 3,443 5.3 -24.7°
